User: anonymous   Login
Location: Unspecified
(0.0000°N, 0.0000°E)
Time: 22:46:58
(UTC+00:00)
Language:

BIRD NN - Orbit

View from above orbital plane
View from above orbital plane
View from above satellite
View from above satellite

Ground track
Ground track

The orbit data is extracted from the following two-line orbital elements,

1 42824U 98067MY  18294.61553737 +.00031519 +00000-0 +22269-3 0  9994
2 42824 051.6331 076.0446 0004680 304.5768 055.4789 15.73719244073718
Epoch (UTC): 21 October 2018 14:46:22
Eccentricity: 0.0004680
inclination: 51.6331°
perigee height: 345 km
apogee height: 351 km
right ascension of ascending node: 76.0446°
argument of perigee: 304.5768°
revolutions per day: 15.73719244
mean anomaly at epoch: 55.4789°
orbit number at epoch: 7371

The dashed part of the orbit path shows where the satellite is in the earth's shadow,  

DLR